Garrison, ND

8:21 PM CST on December 03, 2016 (GMT -0600)
Garrison

Weather History for KN60 - April, 2012

Change the Weather History Date:

Wednesday, April 11, 2012

  Actual Average Record
Temperature  
Mean Temperature 40 °F -  
Max Temperature 55 °F - 76 °F (2015)
Min Temperature 25 °F - 13 °F (2016)
Degree Days  
Heating Degree Days 25    
Month to date heating degree days 227  
Cooling Degree Days 0    
Month to date cooling degree days 0  
Year to date cooling degree days 0  
Moisture  
Dew Point 19 °F    
Average Humidity 52    
Maximum Humidity 81    
Minimum Humidity 22    
Precipitation  
Precipitation 0.00 in - 0.28 in (2005)
Month to date precipitation 0.30  
Year to date precipitation 1.40  
Sea Level Pressure  
Sea Level Pressure 30.24 in    
Wind  
Wind Speed 13 mph (SE)    
Max Wind Speed 23 mph    
Max Gust Speed 28 mph    
T = Trace of Precipitation, MM = Missing Value Source: NWS Daily Summary

Daily Weather History Graph

Daily Weather History Graph

Search for Another Location

Airport or City:

Trip Planner

Search our weather history database for the weather conditions in past years. The results will help you decide how hot, cold, wet, or windy it might be!

Date:

Astronomy

Apr. 11, 2012 Rise Set
Actual Time 7:03 AM CDT 8:30 PM CDT
Civil Twilight 6:31 AM CDT 9:02 PM CDT
Nautical Twilight 5:52 AM CDT 9:41 PM CDT
Astronomical Twilight 5:10 AM CDT 10:23 PM CDT
Moon 1:44 AM CDT (4/11) 10:37 AM CDT (4/11)
Length of Visible Light 14h 31m
Length of Day
13h 27m
Waning Gibbous, 69% of the Moon is Illuminated
Apr 11
Waning Gibbous
Apr 13
Last Quarter
Apr 21
New
Apr 29
First Quarter
May 5
Full

Hourly Weather History & Observations

Time (CDT) Temp. Windchill Dew Point Humidity Pressure Visibility Wind Dir Wind Speed Gust Speed Precip Events Conditions
12:52 AM 28.9 °F 22.8 °F 15.1 °F 56% 30.39 in - East 5.8 mph - N/A   Unknown
1:52 AM 27.0 °F 20.5 °F 17.1 °F 66% 30.40 in - East 5.8 mph - N/A   Unknown
2:52 AM 27.0 °F 18.7 °F 19.0 °F 72% 30.39 in - SE 8.1 mph - N/A   Unknown
3:52 AM 27.0 °F 19.5 °F 19.0 °F 72% 30.38 in - ESE 6.9 mph - N/A   Unknown
4:52 AM 26.1 °F 18.4 °F 18.0 °F 71% 30.38 in - SE 6.9 mph - N/A   Unknown
5:52 AM 26.1 °F 16.8 °F 18.0 °F 71% 30.38 in - SE 9.2 mph - N/A   Unknown
6:52 AM 25.0 °F 16.3 °F 19.0 °F 78% 30.38 in - SE 8.1 mph - N/A   Unknown
7:52 AM 27.0 °F 18.7 °F 21.0 °F 78% 30.38 in - SE 8.1 mph - N/A   Unknown
8:52 AM 30.9 °F 21.7 °F 21.0 °F 67% 30.38 in - SE 11.5 mph - N/A   Unknown
9:52 AM 34.0 °F 24.6 °F 19.9 °F 56% 30.37 in - SSE 13.8 mph - N/A   Unknown
10:52 AM 37.9 °F 28.5 °F 19.0 °F 47% 30.35 in - SSE 17.3 mph - N/A   Unknown
11:52 AM 42.1 °F 34.5 °F 18.0 °F 38% 30.32 in - SSE 15.0 mph - N/A   Unknown
12:52 PM 44.1 °F 36.5 °F 16.0 °F 32% 30.28 in - SSE 17.3 mph - N/A   Unknown
1:52 PM 46.9 °F - 17.1 °F 30% 30.24 in - SE 15.0 mph 24.2 mph N/A   Unknown
2:52 PM 50.0 °F - 15.1 °F 25% 30.20 in - SSE 17.3 mph 25.3 mph N/A   Unknown
3:52 PM 53.1 °F - 17.1 °F 24% 30.15 in - SE 19.6 mph - N/A   Unknown
4:52 PM 55.0 °F - 18.0 °F 23% 30.12 in - SSE 18.4 mph 26.5 mph N/A   Unknown
5:52 PM 55.0 °F - 19.0 °F 24% 30.09 in - SE 17.3 mph - N/A   Unknown
6:52 PM 54.0 °F - 19.9 °F 26% 30.07 in - SE 20.7 mph 27.6 mph N/A   Unknown
7:52 PM 51.1 °F - 21.0 °F 31% 30.06 in - SE 13.8 mph - N/A   Unknown
8:52 PM 46.9 °F - 24.1 °F 41% 30.06 in - SE 15.0 mph - N/A   Unknown
9:52 PM 45.0 °F 37.6 °F 24.1 °F 44% 30.05 in - ESE 17.3 mph - N/A   Unknown
10:52 PM 42.1 °F 34.9 °F 24.1 °F 49% 30.03 in - ESE 13.8 mph - N/A   Unknown
11:52 PM 41.0 °F 33.5 °F 24.1 °F 51% 30.02 in - ESE 13.8 mph - N/A   Unknown